Location: Cheadle
(51.0146°N, 113.5417°W)
Time: 15:15:34
(UTC+00:00)

TIGRISAT - Pass Details

Date: 05 December 2023
Orbit: 597 x 674 km, 97.7° (Epoch: 28 February)

Event Time Altitude Azimuth Distance (km) Brightness Sun altitude
Exits shadow 01:42:48 - 5° (N) 2,770 ? -20.0°
Reaches altitude 10° 01:44:38 10° 358° (N) 2,066 ? -20.3°
Maximum altitude 01:48:41 34° 295° (WNW) 1,066 ? -20.9°
Drops below altitude 10° 01:52:37 10° 230° (SW) 2,007 ? -21.5°
Sets 01:54:55 0° 221° (SW) 2,896 ? -21.8°
